Retour au catalogue

POLAR

ActifScienceHEO
NORAD 23802·PAYLOAD·🇺🇸 United States

Lancé Feb 24, 1996 depuis Vandenberg Space Force Base

Loading…

Prochains Passages (prochaines 24 heures)

TLE

FraisSource: Space-Track

Époque: Sep 13, 2026, 14:45 UTC

1 23802U 96013A   26256.61519253  .00000114  00000-0  00000-0 0  9993
2 23802  79.9839 225.9890 6560748 206.0484  96.0357  1.29845780146002

Suivez POLAR en temps réel avec AllMySat

Download on the App Store